星链-6357 (STARLINK-6357 )

导读

STARLINK-6357是美国太空探索技术公司(SpaceX)星链(Starlink)计划下的一颗卫星,于2023年5月31日发射升空,归属美国。星链计划旨在构建全球卫星互联网星座,该卫星服役后将为全球范围内用户提供高速低延迟的互联网接入服务,进一步扩充星链星座的规模与覆盖能力。

基本信息
目录编号:
56783
目录名称:
STARLINK-6357
国际标识:
2023-078S
轨道中心:
EARTH
卫星名称:
星链-6357
卫星全名:
星链-6357 (STARLINK-6357 )
卫星状态:
在轨 (已飞行1199 天)
发射日期:
2023-05-31 UTC
国别 :
美国 (US)
星等 :
--
该卫星已列入 空间交会检测服务 Space Conjunction Data Service (SCDS) ,当前飞行风险评估等级: 无高风险
轨道信息
数据来源 国际轨道数据
星历时间: 2026-09-11T15:07:06+0800
11小时前
查看轨道信息
半长轴: 6950.196km
偏心率: 0.00033
轨道倾角: 69.998°
近地点辐角 268.968°
升交点赤经 216.553°
平近点角 91.110°
近地点: 569.765km
远地点: 574.353km
周期: 96.107分钟
每日圈数: 14.983292
详细信息
固有亮度:
5
最大亮度:
2.5
卫星平台:
Starlink v1.5
覆盖范围:
全球
运营商:
太空探索技术公司
运营商所在国:
美国
制造商(研发单位):
太空探索技术公司
制造商所在国:
美国
使用方式:
暂无
卫星简介
星链(Starlink)计划是由太空探索技术公司(SpaceX)提出的一个巨型低轨卫星互联网星座项目,计划在2019年至2024年间在太空搭建由约1.2万颗卫星组成的“星链”网络,其中1584颗将部署在地球上空550千米处的近地轨道,并从2020年开始工作。该卫星仍在工作。
2D轨道图
3D轨道图
轨道高度分析图
轨道倾角分析图
轨道综合分析图
查看轨道综合分析图
交会数据列表
事件ID 空间交会对象 最接近时刻(TCA) 交会距离 交会风险概率(CRP) 交会风险指数(CRI) 操作
CDM_260913-222105-678305-910521
2026-09-13T
22:21:51+0000
2.735 km
极远距离
1.530534E-6 低风险 0.39
CDM_260911-224202-794205-678323
UK-DMC (27942)
2026-09-11T
22:42:44+0000
2.933 km
极远距离
1.317099E-6 低风险 0.37
CDM_260913-235805-630805-678321
POEM 2 (56308)
2026-09-13T
23:58:19+0000
2.712 km
极远距离
1.175659E-6 低风险 0.36
CDM_260913-222205-630805-678321
POEM 2 (56308)
2026-09-13T
22:22:12+0000
2.990 km
极远距离
1.036281E-6 低风险 0.35
与全量物体交会距离演化趋势
与全量物体交会风险概率演化趋势